Regional Weather Roundup
Issued by NWS

Home | Current Version | Previous Version | Graphics & Text | Print | Product List | Glossary On
Versions: 1 2 3 4 5 6 7 8 9 10 11 12 13 14 15 16 17 18 19 20 21 22 23 24 25 26 27 28 29 30 31 32 33 34 35 36 37 38 39 40 41 42 43 44 45 46 47 48 49 50
000
ASUS45 KTFX 022010
RWRMT
MONTANA REGIONAL WEATHER ROUNDUP
NATIONAL WEATHER SERVICE GREAT FALLS MT
100 PM MST FRI DEC 02 2016

NOTE: "FAIR" INDICATES FEW OR NO CLOUDS BELOW 12000 FEET WITH NO
SIGNIFICANT WEATHER AND/OR OBSTRUCTIONS TO VISIBILITY.

MTZ001>007-043-022100-
WEST OF THE DIVIDE

CITY           SKY/WX    TMP DP  RH WIND       PRES   REMARKS
KALISPELL      CLOUDY    37  23  56 W9        30.19F WCI  30
MISSOULA       CLOUDY    32  30  92 S5        30.26F
BUTTE          PTSUNNY   29  12  49 W9        30.15F WCI  20
MULLAN PASS    CLOUDY    20  18  92 VRB6      30.15S WCI  12
ANACONDA         N/A     30  12  47 W10G20    30.17F WCI  21
DEER LODGE       N/A     34  18  51 E3        30.20F
EUREKA           N/A     36  23  60 SE6       30.19F WCI  31
HAMILTON         N/A     37  12  35 S9        30.25F WCI  31
LIBBY            N/A     36  27  69 CALM      30.21F
PLAINS           N/A     40  22  49 SW9       30.24F
RONAN            N/A     36  20  52 CALM      30.25F
$$

MTZ008-052>055-022100-
SOUTHWEST MONTANA

CITY           SKY/WX    TMP DP  RH WIND       PRES   REMARKS
BOZEMAN        PTSUNNY   31  20  63 E5        30.18F
DILLON         SUNNY     32  11  41 SW9       30.16F WCI  24
W YELLOWSTONE  CLOUDY    23  12  63 W3        30.16F
ENNIS          MOSUNNY   30  16  55 S12       30.22F WCI  21
THREE FORKS      N/A     38  38 100 W5        30.14F
TWIN BRIDGES     N/A     33  14  45 SE13      30.14F WCI  24
$$

MTZ009-010-012-014-046-048-049-054-022100-
EAST SLOPES AND CENTRAL MONTANA

CITY           SKY/WX    TMP DP  RH WIND       PRES   REMARKS
CUT BANK       SUNNY     35  20  54 W32G41    29.98F WCI  21
GREAT FALLS    SUNNY     33  22  63 SW18      30.06F WCI  22
MALMSTROM AFB  SUNNY     32  26  78 SW14      30.07F WCI  22
HELENA         CLOUDY    35  14  42 W17G24    30.16F WCI  25
AUGUSTA          N/A     34  17  51 W25G32    30.02F WCI  21
BOWMANS CRNR     N/A     32  19  57 SW24G30   30.03F WCI  19
CHOTEAU          N/A     37  19  48 W14G21    30.03F WCI  29
CONRAD           N/A     37  30  76 S7        30.03F WCI  31
FAIRFIELD        N/A     37  18  47 W15       30.02F WCI  28
POWER            N/A     35  23  62 SW18G24   30.03F WCI  24
RAYNESFORD       N/A     33  20  58 SW13G18   30.07F WCI  23
ULM              N/A     34  22  60 SW9G17    30.07F WCI  27
$$

MTZ011-013-016-021-045-047-050-051-022100-
NORTH CENTRAL MONTANA

CITY           SKY/WX    TMP DP  RH WIND       PRES   REMARKS
HAVRE          SUNNY     35  28  75 SW20      30.04F WCI  24
LEWISTOWN      SUNNY     35  22  58 SW14      30.07F WCI  26
N BAR RANCH      N/A     36  18  48 CALM      30.08F
CHINOOK          N/A     39  25  56 SW13      30.05F WCI  32
DENTON           N/A     35  21  55 S9G20     30.04F WCI  28
GEYSER           N/A     33  20  59 W17       30.04F WCI  22
GRASS RANGE      N/A     37  19  47 W9        30.04F WCI  31
JUDITH GAP       N/A     30  17  58 W23G31    30.07F WCI  17
ROY              N/A     38  19  46 MISG      30.06F
STANFORD         N/A     34  19  54 NW1       30.04F
WINIFRED         N/A     36  23  58 MISG      30.06F
$$

MTZ017>020-022>027-061-062-022100-
NORTHEAST MONTANA

CITY           SKY/WX    TMP DP  RH WIND       PRES   REMARKS
GLASGOW        MOSUNNY   36  26  67 W8G17     30.10F WCI  30
JORDAN           N/A     42  26  53 W13       30.11F
SIDNEY         CLOUDY    30  27  88 S9        30.17F WCI  22
WOLF POINT     CLOUDY    35  28  75 SW5       30.14F
PLENTYWOOD       N/A     28  27  93 SE6       30.12F WCI  22
POPLAR           N/A     34  25  69 S5        30.15F
SCOBEY           N/A     30  21  69 S7        30.06F WCI  23
$$

MTZ028>42-056>058-022100-
SOUTHCENTRAL AND SOUTHEAST MONTANA

CITY           SKY/WX    TMP DP  RH WIND       PRES   REMARKS
BAKER          CLOUDY    30  25  81 SW7       30.16F WCI  23
BILLINGS       MOSUNNY   40  19  43 SW14      30.13F
LIVINGSTON     SUNNY     33  17  51 W18       30.14F WCI  22
MILES CITY     SUNNY     37  28  70 SW3       30.16F
BIG TIMBER     MOSUNNY   36  14  41 W25G32    30.13F WCI  23
EKALAKA          N/A     30  24  78 SW6       30.12S WCI  24
FORSYTH          N/A     39  27  60 CALM      30.15F
HARLOWTON        N/A     35  12  38 W32G39    30.09F WCI  22
LAUREL           N/A     40  15  36 SW9       30.11F
ROUNDUP          N/A     39  16  39 SW13      30.02F WCI  31
$$

REGIONAL REPORTS...DAKOTAS

CITY           SKY/WX    TMP DP  RH WIND       PRES   REMARKS
WILLISTON      CLOUDY    30  24  78 SW8       30.16F WCI  22
MINOT          CLOUDY    29  24  82 S10       30.18F WCI  20
DICKINSON      CLOUDY    27  23  85 W6        30.14F WCI  20
BEACH          CLOUDY    28  28 100 W10       30.18F WCI  19
CROSBY         CLOUDY    28  28 100 SW6       30.16F WCI  22
TIOGA          CLOUDY    27  27 100 SW13      30.15F WCI  16
WATFORD CITY   CLOUDY    28  25  86 SW8       30.16F WCI  20
BISMARCK       CLOUDY    26  19  74 SE6       30.24F WCI  19
GRAND FORKS    CLOUDY    32  21  64 NW6       30.26R WCI  26
FARGO          CLOUDY    31  21  66 N8        30.26F WCI  23
BUFFALO SD       N/A     35  27  72 W10       30.10F WCI  27
RAPID CITY     CLOUDY    38  25  59 N13       30.18F WCI  30
$$

REGIONAL REPORTS...WYOMING/IDAHO/WASHINGTON

CITY           SKY/WX    TMP DP  RH WIND       PRES   REMARKS
GILLETTE       MOSUNNY   34  21  59 W7        30.16F WCI  28
SHERIDAN       SUNNY     37  22  54 S6        30.16F
BUFFALO WY     PTSUNNY   37  18  46 SE9       30.14F WCI  30
CODY           SUNNY     36   5  27 S8        30.13F WCI  30
YELLOWSTONE LA   N/A     19   7  59 VRB5      30.13F
IDAHO FALLS    CLOUDY    24  22  91 CALM      30.29F FOG
SALMON         MOSUNNY   34  16  47 NE5       30.26F
BOISE          SUNNY     36  23  59 W6        30.38F WCI  31
SPOKANE        CLOUDY    34  31  88 S9        30.26F WCI  27
$$

REGIONAL REPORTS...ALBERTA

CITY           SKY/WX    TMP DP  RH WIND       PRES   REMARKS
EDMONTON       PTSUNNY   25  21  86 S12G17    29.79F WCI  14
CALGARY        PTSUNNY   32  21  64 S8        29.76F WCI  25
LETHBRIDGE     MOSUNNY   43  19  39 SW23G30   29.89F
MEDICINE HAT   SUNNY     39  23  52 S16       29.95F WCI  30
$$

REGIONAL REPORTS...SASKATCHEWAN

CITY           SKY/WX    TMP DP  RH WIND       PRES   REMARKS
SWIFT CURRENT  CLOUDY    23  23 100 W8        30.00F WCI  14
REGINA         CLOUDY    27  23  86 SW7       30.10F WCI  19
SASKATOON      FLURRIES  27  23  86 S7        30.07F WCI  19
ROCKGLEN         N/A     25  23  93 MISG        N/A
$$



USA.gov is the U.S. government's official web portal to all federal, state and local government web resources and services.